CW7204 Weather Reports


Display with metric or nautical units.
time (UTC)temp
F
wind
direction
speed
MPH
gust
MPH
rain 1hr
in
rain 24hr
in
rain mn
in
humidity
%
barometer
mb
20260506090412 54 45 2.0 9.0 0.00 0.00 0.00 52 1009.2
20260506085411 55 67 4.0 13.0 0.00 0.00 0.00 54 1009.2
20260506084411 54 67 6.0 9.0 0.00 0.00 0.00 55 1009.1
20260506083411 54 315 4.0 11.0 0.00 0.00 0.00 54 1009.1
20260506082411 54 45 4.0 8.0 0.00 0.00 0.00 58 1009.1
20260506081410 53 337 2.0 16.0 0.00 0.00 0.00 56 1009.1
20260506080410 53 45 3.0 12.0 0.00 0.00 0.00 59 1009.1
20260506073414 52 67 2.0 8.0 0.00 0.00 0.00 61 1009.2
20260506072413 51 45 1.0 10.0 0.00 0.00 0.00 63 1009.2
20260506071413 51 67 3.0 13.0 0.00 0.00 0.00 63 1009.1
20260506062411 49 67 1.0 6.0 0.00 0.00 0.00 74 1009.4
20260506061411 49 22 4.0 9.0 0.00 0.00 0.00 73 1009.3
20260506060411 48 67 2.0 8.0 0.00 0.00 0.00 76 1009.3
20260506051414 43 0 0.0 2.0 0.00 0.00 0.00 84 1009.3
20260506050414 43 0 0.0 2.0 0.00 0.00 0.00 85 1009.3
20260506044413 42 360 0.0 2.0 0.00 0.00 0.00 85 1009.2
20260506043416 42 0 0.0 1.0 0.00 0.00 0.00 86 1009.2
20260506042412 42 0 0.0 0.0 0.00 0.00 0.00 87 1009.2
20260506041412 41 0 0.0 4.0 0.00 0.00 0.00 89 1009.3
20260506040412 41 0 0.0 0.0 0.00 0.00 0.00 92 1009.3
20260506034411 40 0 0.0 0.0 0.00 0.00 0.00 94 1009.4
20260506032410 41 0 0.0 0.0 0.00 0.00 0.00 94 1009.5
20260506031410 41 0 0.0 0.0 0.00 0.00 0.00 94 1009.6
20260506030410 41 0 0.0 0.0 0.00 0.00 0.00 94 1009.6
20260506025414 42 0 0.0 0.0 0.00 0.00 0.00 94 1009.6
20260506024414 42 0 0.0 1.0 0.00 0.00 0.00 95 1009.8
20260506023414 41 0 0.0 0.0 0.00 0.00 0.00 94 1009.8
20260506022413 42 0 0.0 0.0 0.00 0.00 0.00 95 1009.7
20260506021416 42 0 0.0 0.0 0.00 0.00 0.00 94 1009.9
20260506020413 42 0 0.0 0.0 0.00 0.00 0.00 94 1009.9
20260506014412 42 0 0.0 0.0 0.00 0.00 0.00 94 1010.1
20260506013412 42 0 0.0 0.0 0.00 0.00 0.00 94 1010.1
20260506012412 42 0 0.0 2.0 0.00 0.00 0.00 94 1010.1
20260506011411 42 0 0.0 0.0 0.00 0.00 0.00 94 1010.1
20260506010411 42 0 0.0 0.0 0.00 0.00 0.00 93 1010.1
20260506005410 42 0 0.0 0.0 0.00 0.00 0.00 93 1010.1
20260506004410 42 0 0.0 1.0 0.00 0.00 0.00 93 1010.1
20260506003415 42 67 0.0 2.0 0.00 0.00 0.00 93 1010.1
20260506002414 42 0 0.0 0.0 0.00 0.00 0.00 92 1010.1
20260506000416 42 0 0.0 0.0 0.00 0.00 0.00 92 1010.2
20260505235413 43 0 0.0 0.0 0.00 0.00 0.00 91 1010.3
20260505234413 43 0 0.0 0.0 0.00 0.00 0.00 91 1010.4
20260505233413 44 0 0.0 0.0 0.00 0.00 0.00 91 1010.4
20260505232412 44 0 0.0 0.0 0.00 0.00 0.00 90 1010.5
20260505231412 44 0 0.0 0.0 0.00 0.00 0.00 90 1010.6
20260505230411 44 0 0.0 0.0 0.00 0.00 0.00 90 1010.6
20260505225411 44 0 0.0 0.0 0.00 0.00 0.00 89 1010.6
20260505224411 44 0 0.0 0.0 0.00 0.00 0.00 89 1010.6
20260505223411 44 0 0.0 0.0 0.00 0.00 0.00 89 1010.6
20260505222410 44 0 0.0 0.0 0.00 0.00 0.00 88 1010.6
20260505221410 45 0 0.0 0.0 0.00 0.00 0.00 88 1010.6
20260505220415 45 0 0.0 0.0 0.00 0.00 0.00 87 1010.6
20260505215414 45 0 0.0 0.0 0.00 0.00 0.00 87 1010.6
20260505214414 45 0 0.0 0.0 0.00 0.00 0.00 86 1010.7
20260505213414 46 0 0.0 0.0 0.00 0.00 0.00 85 1010.7
20260505212413 46 0 0.0 0.0 0.00 0.00 0.00 85 1010.7
20260505211413 46 0 0.0 0.0 0.00 0.00 0.00 84 1010.7
20260505210413 46 0 0.0 0.0 0.00 0.00 0.00 83 1010.7
20260505205413 47 0 0.0 0.0 0.00 0.00 0.00 83 1010.9
20260505204412 47 0 0.0 0.0 0.00 0.00 0.00 82 1010.9
20260505203412 47 0 0.0 0.0 0.00 0.00 0.00 81 1010.9
20260505202411 48 0 0.0 2.0 0.00 0.00 0.00 80 1010.9
20260505200410 49 67 0.0 4.0 0.00 0.00 0.00 77 1010.8
20260505195410 49 45 3.0 6.0 0.00 0.00 0.00 76 1010.7
20260505193417 50 45 2.0 4.0 0.00 0.00 0.00 74 1010.7
20260505192414 51 67 2.0 8.0 0.00 0.00 0.00 74 1010.6
20260505191414 51 67 1.0 4.0 0.00 0.00 0.00 73 1010.6
20260505190413 52 45 3.0 7.0 0.00 0.00 0.00 71 1010.6
20260505185413 52 45 2.0 8.0 0.00 0.00 0.00 71 1010.5
20260505184413 53 67 1.0 6.0 0.00 0.00 0.00 69 1010.5
20260505183412 53 67 1.0 4.0 0.00 0.00 0.00 67 1010.5
20260505182412 54 45 3.0 7.0 0.00 0.00 0.00 65 1010.3
20260505181412 54 67 4.0 9.0 0.00 0.00 0.00 63 1010.1
20260505175411 55 67 1.0 4.0 0.00 0.00 0.00 62 1010.3
20260505174411 55 45 2.0 7.0 0.00 0.00 0.00 62 1010.5
20260505173410 55 67 1.0 4.0 0.00 0.00 0.00 63 1010.5
20260505172410 55 67 0.0 4.0 0.00 0.00 0.00 62 1010.6
20260505171410 55 22 3.0 8.0 0.00 0.00 0.00 60 1010.6
20260505170414 56 360 2.0 7.0 0.00 0.00 0.00 62 1010.6
20260505165414 56 337 0.0 7.0 0.00 0.00 0.00 61 1010.4
20260505164414 56 67 2.0 8.0 0.00 0.00 0.00 60 1010.6
20260505163414 57 337 4.0 7.0 0.00 0.00 0.00 58 1010.6
20260505162413 57 337 1.0 7.0 0.00 0.00 0.00 58 1010.6
20260505161413 57 337 3.0 9.0 0.00 0.00 0.00 58 1010.7
20260505160412 57 337 2.0 7.0 0.00 0.00 0.00 59 1010.7
20260505152411 57 67 3.0 6.0 0.00 0.00 0.00 64 1011.0
20260505151411 56 90 4.0 6.0 0.00 0.00 0.00 64 1011.1
20260505150410 56 67 2.0 8.0 0.00 0.00 0.00 66 1011.1
20260505140413 56 337 4.0 8.0 0.00 0.00 0.00 67 1011.3
20260505124414 56 67 7.0 10.0 0.00 0.00 0.00 68 1011.5
20260505123410 57 67 4.0 10.0 0.00 0.00 0.00 69 1011.5
20260505120414 57 22 3.0 10.0 0.00 0.00 0.00 67 1011.6
20260505115414 57 337 1.0 7.0 0.00 0.00 0.00 67 1011.5
20260505114413 57 67 4.0 10.0 0.00 0.00 0.00 67 1011.4
20260505113414 57 45 2.0 8.0 0.00 0.00 0.00 68 1011.4
20260505112413 57 67 2.0 9.0 0.00 0.00 0.00 68 1011.5
20260505111413 57 315 4.0 10.0 0.00 0.00 0.00 68 1011.6
20260505110412 57 67 4.0 10.0 0.00 0.00 0.00 69 1011.6
20260505101410 57 67 7.0 12.0 0.00 0.00 0.00 68 1011.9
20260505100410 57 45 3.0 8.0 0.00 0.00 0.00 69 1011.9
20260505095413 56 67 1.0 10.0 0.00 0.00 0.00 70 1011.8
20260505094409 56 360 2.0 7.0 0.00 0.00 0.00 71 1011.9
20260505093414 56 90 1.0 9.0 0.00 0.00 0.00 70 1011.9
20260505092414 56 22 0.0 9.0 0.00 0.00 0.00 67 1012.1
20260505091414 56 360 2.0 7.0 0.00 0.00 0.00 69 1012.0